Consulta les dades en temps real de l'estació municipal de Susqueda - Veïnat del Coll
| Hora UTC | 20:30 |
|---|---|
| Temperatura | 19.4 ºC |
| Humitat | 78.3 % |
| Pressió | 1022.4 hPa |
| Pluja | 0.0 mm |
| Velocitat vent | 1.4 km/h |
| Direcció vent | W |
| Radiació solar | 0.1 W/m² |
| Temperatura (ºC) | Humitat (%) | Pressió (hPa) | Velocitat vent (km/h) | Precipitació (mm) | Radiació solar (W/m²) | |||||||||||||
|---|---|---|---|---|---|---|---|---|---|---|---|---|---|---|---|---|---|---|
| Hora UTC | Aire | Humitat | Pressió | Vel. | Dir. | Vel. Max | Dir. | Intent. màx 5 min. | Rad. Sol. | |||||||||
| 00:05 | 17.0 | 94.2 | 1023.5 | 0.6 | SW | 0.6 | SW | 0.0 | 0.1 | |||||||||
| 00:10 | 16.9 | 94.2 | 1023.5 | 0.0 | NNE | 0.0 | SW | 0.0 | 0.1 | |||||||||
| 00:15 | 16.8 | 94.2 | 1023.5 | 0.1 | W | 1.1 | W | 0.0 | 0.1 | |||||||||
| 00:20 | 16.8 | 94.3 | 1023.5 | 1.2 | W | 3.5 | W | 0.0 | 0.1 | |||||||||
| 00:25 | 16.8 | 94.4 | 1023.4 | 2.7 | WSW | 4.2 | W | 0.0 | 0.1 | |||||||||
| 00:30 | 16.8 | 94.6 | 1023.4 | 3.1 | W | 3.9 | W | 0.0 | 0.1 | |||||||||
| 00:35 | 16.8 | 94.7 | 1023.3 | 3.2 | W | 4.2 | WSW | 0.0 | 0.1 | |||||||||
| 00:40 | 16.8 | 95.0 | 1023.3 | 2.8 | W | 4.6 | W | 0.0 | 0.1 | |||||||||
| 00:45 | 16.8 | 94.9 | 1023.3 | 2.4 | WSW | 3.5 | W | 0.0 | 0.1 | |||||||||
| 00:50 | 16.8 | 94.9 | 1023.3 | 1.7 | W | 3.2 | W | 0.0 | 0.1 | |||||||||
| 00:55 | 16.8 | 95.3 | 1023.3 | 1.2 | W | 2.1 | W | 0.0 | 0.1 | |||||||||
| 01:00 | 16.8 | 95.0 | 1023.3 | 1.2 | W | 2.5 | W | 0.0 | 0.1 | |||||||||
| 01:05 | 16.8 | 95.2 | 1023.3 | 2.5 | W | 3.2 | W | 0.0 | 0.1 | |||||||||
| 01:10 | 16.8 | 95.2 | 1023.3 | 2.3 | W | 3.2 | W | 0.0 | 0.1 | |||||||||
| 01:15 | 16.7 | 95.3 | 1023.3 | 0.9 | W | 2.5 | W | 0.0 | 0.1 | |||||||||
| 01:20 | 16.9 | 95.8 | 1023.3 | 1.4 | S | 3.9 | S | 0.0 | 0.1 | |||||||||
| 01:25 | 17.0 | 95.8 | 1023.3 | 2.5 | SSW | 3.2 | SSW | 0.0 | 0.1 | |||||||||
| 01:30 | 17.1 | 95.6 | 1023.3 | 1.5 | SSW | 2.5 | SSW | 0.0 | 0.1 | |||||||||
| 01:35 | 17.1 | 95.4 | 1023.3 | 1.3 | SSW | 2.1 | SSW | 0.0 | 0.1 | |||||||||
| 01:40 | 17.2 | 95.3 | 1023.3 | 0.4 | SW | 1.8 | WSW | 0.0 | 0.1 | |||||||||
| 01:45 | 17.2 | 95.0 | 1023.3 | 1.8 | SW | 3.5 | SW | 0.0 | 0.1 | |||||||||
| 01:50 | 17.3 | 94.9 | 1023.3 | 1.8 | SW | 3.9 | SW | 0.0 | 0.1 | |||||||||
| 01:55 | 17.3 | 94.7 | 1023.2 | 1.5 | SSE | 3.2 | SE | 0.0 | 0.1 | |||||||||
| 02:00 | 17.3 | 94.5 | 1023.2 | 0.1 | SE | 1.1 | ESE | 0.0 | 0.1 | |||||||||
| 02:05 | 17.1 | 94.3 | 1023.2 | 0.6 | W | 1.8 | W | 0.0 | 0.1 | |||||||||
| 02:10 | 17.1 | 94.8 | 1023.2 | 0.5 | SW | 2.8 | SSW | 0.0 | 0.1 | |||||||||
| 02:15 | 17.2 | 95.0 | 1023.1 | 0.0 | NNE | 0.0 | SW | 0.0 | 0.1 | |||||||||
| 02:20 | 17.1 | 95.1 | 1023.1 | 0.5 | W | 2.1 | W | 0.0 | 0.1 | |||||||||
| 02:25 | 17.2 | 95.3 | 1023.1 | 1.4 | SW | 4.6 | WSW | 0.0 | 0.1 | |||||||||
| 02:30 | 17.2 | 95.6 | 1023.1 | 2.7 | SW | 6.0 | S | 0.0 | 0.1 | |||||||||
| 02:35 | 17.2 | 96.0 | 1023.0 | 2.0 | SW | 9.2 | W | 0.0 | 0.1 | |||||||||
| 02:40 | 17.2 | 96.3 | 1023.0 | 2.9 | SW | 9.2 | W | 0.0 | 0.1 | |||||||||
| 02:45 | 17.2 | 96.5 | 1022.9 | 2.1 | WSW | 7.8 | S | 0.0 | 0.1 | |||||||||
| 02:50 | 17.2 | 96.7 | 1022.9 | 3.5 | W | 7.8 | SW | 0.0 | 0.1 | |||||||||
| 02:55 | 17.1 | 96.8 | 1022.8 | 2.2 | W | 10.9 | WSW | 0.0 | 0.1 | |||||||||
| 03:00 | 17.1 | 96.9 | 1022.8 | 2.7 | SW | 7.1 | WNW | 0.0 | 0.1 | |||||||||
| 03:05 | 17.1 | 97.0 | 1022.7 | 3.5 | WSW | 10.9 | SSW | 0.0 | 0.1 | |||||||||
| 03:10 | 17.0 | 97.0 | 1022.7 | 4.5 | WSW | 12.7 | SW | 0.0 | 0.1 | |||||||||
| 03:15 | 17.0 | 97.0 | 1022.7 | 5.0 | SW | 11.6 | SW | 0.0 | 0.1 | |||||||||
| 03:20 | 17.0 | 97.0 | 1022.7 | 3.2 | WSW | 9.5 | WNW | 0.0 | 0.1 | |||||||||
| 03:25 | 17.0 | 97.0 | 1022.7 | 3.8 | WSW | 11.3 | WNW | 0.0 | 0.1 | |||||||||
| 03:30 | 17.0 | 97.0 | 1022.7 | 3.5 | W | 9.2 | WNW | 0.0 | 0.1 | |||||||||
| 03:35 | 17.0 | 97.0 | 1022.5 | 4.4 | W | 11.6 | W | 0.0 | 0.1 | |||||||||
| 03:40 | 17.0 | 97.0 | 1022.5 | 5.6 | W | 14.1 | W | 0.0 | 0.1 | |||||||||
| 03:45 | 17.0 | 97.0 | 1022.4 | 4.8 | WSW | 11.3 | WNW | 0.0 | 0.1 | |||||||||
| 03:50 | 17.0 | 97.0 | 1022.4 | 5.7 | WSW | 12.4 | SW | 0.0 | 0.1 | |||||||||
| 03:55 | 16.9 | 96.9 | 1022.3 | 4.7 | WSW | 11.3 | W | 0.0 | 0.1 | |||||||||
| 04:00 | 16.9 | 96.9 | 1022.3 | 4.1 | WSW | 10.9 | W | 0.0 | 0.1 | |||||||||
| 04:05 | 16.8 | 97.0 | 1022.3 | 4.0 | WSW | 13.8 | W | 0.0 | 0.1 | |||||||||
| 04:10 | 16.9 | 97.1 | 1022.3 | 3.7 | WSW | 8.1 | SW | 0.0 | 0.1 | |||||||||
| 04:15 | 16.9 | 97.1 | 1022.3 | 4.6 | WSW | 13.4 | SW | 0.0 | 0.1 | |||||||||
| 04:20 | 16.9 | 97.1 | 1022.3 | 4.4 | WSW | 12.0 | SW | 0.0 | 0.1 | |||||||||
| 04:25 | 16.9 | 97.1 | 1022.3 | 4.4 | WSW | 13.4 | SSW | 0.0 | 0.1 | |||||||||
| 04:30 | 16.8 | 97.1 | 1022.3 | 3.3 | SW | 8.5 | WNW | 0.0 | 0.1 | |||||||||
| 04:35 | 16.8 | 97.2 | 1022.2 | 4.8 | WSW | 13.4 | WNW | 0.0 | 0.1 | |||||||||
| 04:40 | 16.8 | 97.2 | 1022.2 | 4.9 | WSW | 11.6 | WNW | 0.0 | 0.1 | |||||||||
| 04:45 | 16.8 | 97.2 | 1022.1 | 5.2 | WSW | 11.3 | SW | 0.0 | 0.1 | |||||||||
| 04:50 | 16.8 | 97.2 | 1022.1 | 4.4 | WSW | 10.2 | SSW | 0.0 | 0.1 | |||||||||
| 04:55 | 16.8 | 97.3 | 1022.2 | 4.9 | WSW | 13.1 | WNW | 0.0 | 0.2 | |||||||||
| 05:00 | 16.8 | 97.3 | 1022.2 | 5.2 | WSW | 12.7 | WNW | 0.0 | 0.6 | |||||||||
| 05:05 | 16.8 | 97.3 | 1022.2 | 4.6 | WSW | 11.3 | WSW | 0.0 | 1.1 | |||||||||
| 05:10 | 16.8 | 97.4 | 1022.2 | 4.7 | WSW | 14.5 | W | 0.0 | 1.9 | |||||||||
| 05:15 | 16.8 | 97.4 | 1022.2 | 5.1 | WSW | 10.6 | SW | 0.0 | 3.4 | |||||||||
| 05:20 | 16.8 | 97.4 | 1022.2 | 3.8 | WSW | 9.9 | W | 0.0 | 4.6 | |||||||||
| 05:25 | 16.8 | 97.4 | 1022.3 | 5.0 | WSW | 11.3 | WNW | 0.0 | 8.7 | |||||||||
| 05:30 | 16.8 | 97.5 | 1022.3 | 4.5 | W | 13.4 | W | 0.0 | 15.8 | |||||||||
| 05:35 | 16.8 | 97.5 | 1022.4 | 4.3 | WSW | 12.0 | WNW | 0.0 | 21.5 | |||||||||
| 05:40 | 16.8 | 97.5 | 1022.4 | 3.7 | WSW | 12.7 | WNW | 0.0 | 23.9 | |||||||||
| 05:45 | 16.8 | 97.5 | 1022.5 | 3.9 | WSW | 11.3 | SW | 0.0 | 35.9 | |||||||||
| 05:50 | 16.8 | 97.5 | 1022.5 | 4.4 | SW | 10.9 | W | 0.0 | 38.9 | |||||||||
| 05:55 | 16.9 | 97.5 | 1022.5 | 4.0 | WSW | 10.2 | SW | 0.0 | 45.4 | |||||||||
| 06:00 | 16.9 | 97.6 | 1022.5 | 3.3 | WSW | 8.5 | WNW | 0.0 | 50.1 | |||||||||
| 06:05 | 17.0 | 97.7 | 1022.5 | 3.3 | WSW | 9.5 | WNW | 0.0 | 86.1 | |||||||||
| 06:10 | 17.1 | 97.7 | 1022.5 | 3.6 | WSW | 9.5 | SSW | 0.0 | 127.6 | |||||||||
| 06:15 | 17.2 | 97.6 | 1022.6 | 4.5 | WSW | 8.8 | WSW | 0.0 | 147.4 | |||||||||
| 06:20 | 17.3 | 97.6 | 1022.6 | 3.0 | WSW | 8.5 | W | 0.0 | 163.4 | |||||||||
| 06:25 | 17.4 | 97.3 | 1022.6 | 3.1 | SW | 8.5 | NW | 0.0 | 178.0 | |||||||||
| 06:30 | 17.6 | 96.9 | 1022.6 | 1.8 | WSW | 6.0 | SSE | 0.0 | 195.8 | |||||||||
| 06:35 | 17.8 | 95.9 | 1022.7 | 2.6 | SW | 8.5 | SSW | 0.0 | 210.1 | |||||||||
| 06:40 | 18.0 | 93.9 | 1022.7 | 2.3 | SW | 7.1 | SW | 0.0 | 222.6 | |||||||||
| 06:45 | 18.2 | 91.6 | 1022.7 | 3.2 | SSW | 7.4 | SSW | 0.0 | 132.8 | |||||||||
| 06:50 | 18.2 | 90.5 | 1022.7 | 2.1 | SW | 7.1 | S | 0.0 | 128.1 | |||||||||
| 06:55 | 18.0 | 90.8 | 1022.8 | 2.0 | SW | 5.6 | W | 0.0 | 80.5 | |||||||||
| 07:00 | 17.8 | 91.7 | 1022.8 | 3.2 | SW | 6.4 | SW | 0.0 | 136.3 | |||||||||
| 07:05 | 17.8 | 92.2 | 1022.8 | 2.3 | SSW | 8.8 | W | 0.0 | 89.8 | |||||||||
| 07:10 | 17.8 | 92.3 | 1022.8 | 2.1 | WSW | 6.7 | SSE | 0.0 | 126.2 | |||||||||
| 07:15 | 17.9 | 92.6 | 1022.9 | 1.7 | W | 6.0 | NW | 0.0 | 113.8 | |||||||||
| 07:20 | 17.9 | 92.3 | 1022.9 | 1.9 | WSW | 6.4 | WSW | 0.0 | 107.4 | |||||||||
| 07:25 | 18.0 | 92.7 | 1022.8 | 2.6 | WSW | 9.2 | W | 0.0 | 199.0 | |||||||||
| 07:30 | 18.1 | 92.0 | 1022.8 | 2.9 | WSW | 12.4 | W | 0.0 | 204.6 | |||||||||
| 07:35 | 18.2 | 90.7 | 1022.9 | 3.8 | SSW | 9.2 | SW | 0.0 | 58.5 | |||||||||
| 07:40 | 17.9 | 90.7 | 1022.9 | 3.0 | SSW | 7.4 | SSW | 0.0 | 159.8 | |||||||||
| 07:45 | 18.1 | 91.1 | 1022.9 | 2.6 | SSW | 8.5 | SW | 0.0 | 303.6 | |||||||||
| 07:50 | 18.5 | 89.3 | 1022.9 | 2.6 | SW | 6.7 | WSW | 0.0 | 158.2 | |||||||||
| 07:55 | 18.7 | 88.8 | 1022.9 | 3.3 | SSW | 8.1 | SSE | 0.0 | 448.9 | |||||||||
| 08:00 | 19.1 | 86.5 | 1022.9 | 3.2 | S | 8.8 | SSE | 0.0 | 262.8 | |||||||||
| 08:05 | 18.9 | 84.8 | 1022.9 | 3.2 | SSW | 7.8 | SW | 0.0 | 93.0 | |||||||||
| 08:10 | 18.6 | 85.9 | 1022.9 | 2.1 | SW | 6.7 | WSW | 0.0 | 107.9 | |||||||||
| 08:15 | 18.5 | 86.4 | 1022.8 | 4.3 | WSW | 12.0 | SW | 0.0 | 126.4 | |||||||||
| 08:20 | 18.4 | 87.1 | 1022.8 | 3.9 | SW | 9.2 | WSW | 0.0 | 225.6 | |||||||||
| 08:25 | 18.7 | 86.7 | 1022.9 | 4.5 | WSW | 9.9 | SSW | 0.0 | 320.9 | |||||||||
| 08:30 | 19.0 | 83.9 | 1022.9 | 3.9 | SW | 7.4 | SSW | 0.0 | 108.8 | |||||||||
| 08:35 | 18.9 | 84.3 | 1022.9 | 3.9 | WSW | 6.7 | SSW | 0.0 | 299.5 | |||||||||
| 08:40 | 19.1 | 84.0 | 1022.9 | 2.5 | WSW | 7.1 | S | 0.0 | 207.2 | |||||||||
| 08:45 | 19.3 | 83.4 | 1022.9 | 4.3 | WSW | 10.6 | W | 0.0 | 504.3 | |||||||||
| 08:50 | 19.8 | 81.2 | 1022.9 | 4.6 | WNW | 10.2 | W | 0.0 | 548.4 | |||||||||
| 08:55 | 20.3 | 79.5 | 1022.9 | 4.4 | ENE | 10.2 | N | 0.0 | 600.0 | |||||||||
| 09:00 | 21.4 | 74.8 | 1022.9 | 4.7 | ENE | 14.8 | E | 0.0 | 614.7 | |||||||||
| 09:05 | 22.0 | 71.6 | 1023.0 | 5.7 | ENE | 12.4 | E | 0.0 | 625.6 | |||||||||
| 09:10 | 22.1 | 70.5 | 1023.0 | 6.5 | ENE | 14.1 | ENE | 0.0 | 641.5 | |||||||||
| 09:15 | 22.3 | 70.1 | 1023.0 | 5.8 | ENE | 14.5 | ESE | 0.0 | 653.1 | |||||||||
| 09:20 | 22.8 | 67.4 | 1023.0 | 3.9 | NE | 10.9 | ENE | 0.0 | 665.2 | |||||||||
| 09:25 | 23.0 | 66.9 | 1023.0 | 3.1 | ENE | 9.2 | ENE | 0.0 | 676.7 | |||||||||
| 09:30 | 22.9 | 67.1 | 1023.0 | 4.2 | ENE | 9.5 | ESE | 0.0 | 689.1 | |||||||||
| 09:35 | 23.4 | 65.8 | 1023.1 | 5.4 | E | 12.0 | E | 0.0 | 699.4 | |||||||||
| 09:40 | 22.8 | 66.2 | 1023.1 | 3.1 | E | 10.6 | E | 0.0 | 709.3 | |||||||||
| 09:45 | 22.9 | 67.4 | 1023.0 | 5.8 | ENE | 13.8 | ENE | 0.0 | 712.3 | |||||||||
| 09:50 | 23.2 | 66.9 | 1023.0 | 4.0 | ENE | 9.9 | E | 0.0 | 727.4 | |||||||||
| 09:55 | 23.1 | 68.0 | 1023.0 | 6.7 | ENE | 12.7 | ENE | 0.0 | 742.0 | |||||||||
| 10:00 | 23.1 | 68.3 | 1023.0 | 7.9 | E | 24.3 | E | 0.0 | 752.2 | |||||||||
| 10:05 | 23.5 | 66.1 | 1023.0 | 7.7 | E | 20.1 | NE | 0.0 | 554.0 | |||||||||
| 10:10 | 23.2 | 66.9 | 1023.0 | 6.0 | E | 14.8 | ENE | 0.0 | 721.9 | |||||||||
| 10:15 | 23.5 | 64.9 | 1023.0 | 3.5 | E | 10.6 | E | 0.0 | 455.7 | |||||||||
| 10:20 | 23.2 | 65.2 | 1023.0 | 6.7 | E | 15.9 | E | 0.0 | 835.0 | |||||||||
| 10:25 | 24.0 | 62.3 | 1023.2 | 7.5 | ESE | 15.5 | ESE | 0.0 | 811.0 | |||||||||
| 10:30 | 24.1 | 60.8 | 1023.2 | 6.3 | E | 15.5 | ESE | 0.0 | 799.8 | |||||||||
| 10:35 | 23.8 | 61.7 | 1023.1 | 7.5 | ESE | 19.4 | SSE | 0.0 | 798.4 | |||||||||
| 10:40 | 24.1 | 62.3 | 1023.1 | 6.6 | E | 20.5 | SE | 0.0 | 772.0 | |||||||||
| 10:45 | 24.5 | 60.4 | 1023.0 | 7.2 | ESE | 21.2 | SE | 0.0 | 798.9 | |||||||||
| 10:50 | 24.0 | 62.0 | 1023.0 | 8.5 | SE | 25.1 | SE | 0.0 | 736.8 | |||||||||
| 10:55 | 24.1 | 62.1 | 1023.1 | 11.1 | SE | 24.0 | SE | 0.0 | 835.0 | |||||||||
| 11:00 | 24.0 | 62.6 | 1023.1 | 8.4 | SE | 23.3 | S | 0.0 | 757.5 | |||||||||
| 11:05 | 24.0 | 62.3 | 1023.1 | 9.1 | SE | 22.6 | SE | 0.0 | 316.3 | |||||||||
| 11:10 | 23.4 | 64.6 | 1023.1 | 7.1 | SE | 18.0 | SE | 0.0 | 311.4 | |||||||||
| 11:15 | 23.2 | 65.0 | 1023.1 | 6.3 | SSE | 23.6 | SSE | 0.0 | 623.0 | |||||||||
| 11:20 | 23.9 | 63.1 | 1023.1 | 8.5 | SE | 21.2 | SE | 0.0 | 842.0 | |||||||||
| 11:25 | 24.1 | 61.6 | 1023.1 | 4.9 | SW | 10.9 | SSW | 0.0 | 804.0 | |||||||||
| 11:30 | 24.3 | 61.3 | 1023.1 | 8.3 | SSE | 15.9 | ESE | 0.0 | 720.4 | |||||||||
| 11:35 | 24.4 | 60.6 | 1023.0 | 7.5 | SE | 19.1 | S | 0.0 | 770.7 | |||||||||
| 11:40 | 24.6 | 60.5 | 1023.0 | 4.7 | SE | 12.4 | S | 0.0 | 548.7 | |||||||||
| 11:45 | 24.6 | 60.3 | 1023.0 | 4.2 | SE | 14.8 | S | 0.0 | 450.8 | |||||||||
| 11:50 | 24.5 | 61.4 | 1023.0 | 6.4 | SSE | 17.3 | ESE | 0.0 | 761.5 | |||||||||
| 11:55 | 25.1 | 60.2 | 1023.0 | 4.7 | SW | 15.2 | SE | 0.0 | 894.0 | |||||||||
| 12:00 | 25.1 | 59.8 | 1023.0 | 8.5 | SE | 17.6 | SE | 0.0 | 815.0 | |||||||||
| 12:05 | 25.1 | 60.2 | 1022.9 | 4.4 | ESE | 12.7 | ESE | 0.0 | 715.4 | |||||||||
| 12:10 | 25.3 | 59.6 | 1022.9 | 4.6 | ESE | 11.3 | SE | 0.0 | 799.8 | |||||||||
| 12:15 | 25.6 | 58.5 | 1022.9 | 6.2 | ESE | 16.2 | SE | 0.0 | 842.0 | |||||||||
| 12:20 | 25.2 | 59.3 | 1022.9 | 3.8 | ENE | 10.6 | E | 0.0 | 607.5 | |||||||||
| 12:25 | 25.0 | 59.7 | 1022.9 | 3.8 | ENE | 13.1 | NE | 0.0 | 439.7 | |||||||||
| 12:30 | 24.7 | 60.4 | 1022.9 | 3.6 | ENE | 8.8 | E | 0.0 | 265.3 | |||||||||
| 12:35 | 24.1 | 62.0 | 1022.8 | 3.1 | NE | 8.8 | ENE | 0.0 | 441.9 | |||||||||
| 12:40 | 24.1 | 62.6 | 1022.8 | 3.1 | NE | 10.9 | ENE | 0.0 | 495.9 | |||||||||
| 12:45 | 24.4 | 60.8 | 1022.9 | 2.5 | NE | 6.7 | ENE | 0.0 | 462.6 | |||||||||
| 12:50 | 24.3 | 60.5 | 1022.9 | 2.7 | ESE | 7.1 | SE | 0.0 | 412.7 | |||||||||
| 12:55 | 24.4 | 60.1 | 1022.9 | 3.2 | NE | 8.1 | NE | 0.0 | 498.3 | |||||||||
| 13:00 | 24.4 | 59.8 | 1022.9 | 1.9 | NE | 5.6 | NNE | 0.0 | 210.2 | |||||||||
| 13:05 | 24.0 | 61.3 | 1022.7 | 2.2 | NNE | 6.4 | NE | 0.0 | 343.4 | |||||||||
| 13:10 | 23.8 | 61.6 | 1022.7 | 2.1 | NE | 6.4 | NNE | 0.0 | 277.0 | |||||||||
| 13:15 | 24.3 | 59.7 | 1022.7 | 3.2 | ENE | 8.1 | S | 0.0 | 675.5 | |||||||||
| 13:20 | 25.1 | 55.7 | 1022.7 | 5.2 | N | 12.0 | SSE | 0.0 | 769.6 | |||||||||
| 13:25 | 25.9 | 52.2 | 1022.6 | 3.1 | NNW | 14.8 | WNW | 0.0 | 579.5 | |||||||||
| 13:30 | 25.5 | 51.3 | 1022.6 | 2.4 | SW | 6.0 | SW | 0.0 | 251.9 | |||||||||
| 13:35 | 25.1 | 53.3 | 1022.5 | 3.0 | NNW | 7.8 | N | 0.0 | 665.2 | |||||||||
| 13:40 | 25.4 | 52.5 | 1022.5 | 3.1 | N | 10.6 | N | 0.0 | 695.6 | |||||||||
| 13:45 | 25.6 | 52.5 | 1022.4 | 2.6 | W | 10.9 | N | 0.0 | 411.5 | |||||||||
| 13:50 | 25.3 | 53.6 | 1022.4 | 5.5 | NE | 14.1 | SSW | 0.0 | 522.4 | |||||||||
| 13:55 | 25.0 | 54.4 | 1022.4 | 5.9 | NW | 18.7 | W | 0.0 | 349.5 | |||||||||
| 14:00 | 24.8 | 54.2 | 1022.4 | 3.3 | NNW | 13.8 | NNW | 0.0 | 287.5 | |||||||||
| 14:05 | 24.5 | 54.4 | 1022.2 | 3.3 | WNW | 9.5 | W | 0.0 | 214.1 | |||||||||
| 14:10 | 24.2 | 55.6 | 1022.2 | 2.7 | SW | 9.5 | N | 0.0 | 183.5 | |||||||||
| 14:15 | 24.1 | 55.9 | 1022.1 | 2.5 | W | 8.5 | W | 0.0 | 287.8 | |||||||||
| 14:20 | 24.5 | 55.4 | 1022.1 | 3.7 | W | 12.4 | WNW | 0.0 | 783.1 | |||||||||
| 14:25 | 25.2 | 53.8 | 1022.0 | 3.0 | W | 8.8 | WSW | 0.0 | 704.8 | |||||||||
| 14:30 | 25.3 | 54.2 | 1022.0 | 1.4 | N | 4.9 | SSE | 0.0 | 602.4 | |||||||||
| 14:35 | 25.1 | 54.2 | 1022.0 | 4.4 | WSW | 13.8 | WNW | 0.0 | 386.9 | |||||||||
| 14:40 | 24.7 | 55.7 | 1022.0 | 2.4 | NNW | 8.1 | NE | 0.0 | 629.4 | |||||||||
| 14:45 | 25.2 | 53.9 | 1022.0 | 4.1 | WSW | 13.8 | W | 0.0 | 611.0 | |||||||||
| 14:50 | 25.1 | 53.6 | 1022.0 | 3.5 | WNW | 8.5 | N | 0.0 | 558.3 | |||||||||
| 14:55 | 25.1 | 53.8 | 1021.9 | 3.3 | N | 10.6 | WSW | 0.0 | 397.3 | |||||||||
| 15:00 | 25.1 | 52.9 | 1021.9 | 2.8 | W | 8.8 | SSW | 0.0 | 562.7 | |||||||||
| 15:05 | 25.1 | 52.6 | 1021.8 | 3.1 | NNW | 10.2 | NNW | 0.0 | 469.2 | |||||||||
| 15:10 | 25.3 | 53.4 | 1021.8 | 4.8 | SSW | 12.4 | SSW | 0.0 | 308.1 | |||||||||
| 15:15 | 24.7 | 54.6 | 1021.8 | 2.5 | SE | 7.4 | SSE | 0.0 | 185.2 | |||||||||
| 15:20 | 24.4 | 56.4 | 1021.8 | 2.1 | ENE | 8.8 | NNW | 0.0 | 326.0 | |||||||||
| 15:25 | 24.5 | 57.6 | 1021.8 | 4.4 | NNW | 8.8 | WNW | 0.0 | 250.1 | |||||||||
| 15:30 | 24.4 | 57.7 | 1021.8 | 2.1 | NNW | 6.4 | NNW | 0.0 | 218.4 | |||||||||
| 15:35 | 24.6 | 58.9 | 1021.7 | 2.3 | N | 9.2 | N | 0.0 | 333.4 | |||||||||
| 15:40 | 24.2 | 61.2 | 1021.7 | 3.6 | NNE | 10.9 | NNW | 0.0 | 232.9 | |||||||||
| 15:45 | 23.8 | 64.7 | 1021.7 | 4.1 | ENE | 8.5 | ESE | 0.0 | 510.1 | |||||||||
| 15:50 | 23.9 | 68.9 | 1021.7 | 2.2 | ENE | 5.6 | ENE | 0.0 | 302.4 | |||||||||
| 15:55 | 23.5 | 70.2 | 1021.8 | 3.2 | E | 6.7 | E | 0.0 | 131.3 | |||||||||
| 16:00 | 23.1 | 69.2 | 1021.8 | 2.2 | NE | 6.7 | NE | 0.0 | 101.6 | |||||||||
| 16:05 | 23.5 | 65.8 | 1021.7 | 2.0 | NNE | 10.9 | NNE | 0.0 | 104.8 | |||||||||
| 16:10 | 23.8 | 62.9 | 1021.7 | 1.9 | NE | 5.6 | NNE | 0.0 | 83.0 | |||||||||
| 16:15 | 24.0 | 62.2 | 1021.7 | 2.4 | NNE | 8.8 | NW | 0.0 | 67.2 | |||||||||
| 16:20 | 23.9 | 63.6 | 1021.7 | 2.9 | NNE | 9.9 | NNW | 0.0 | 78.3 | |||||||||
| 16:25 | 23.8 | 62.1 | 1021.6 | 2.2 | NNW | 6.4 | WNW | 0.0 | 60.2 | |||||||||
| 16:30 | 23.6 | 62.7 | 1021.6 | 1.8 | NW | 6.0 | WNW | 0.0 | 83.6 | |||||||||
| 16:35 | 23.5 | 63.9 | 1021.5 | 2.8 | NNW | 8.8 | W | 0.0 | 129.9 | |||||||||
| 16:40 | 23.6 | 63.1 | 1021.5 | 2.9 | SSE | 9.9 | S | 0.0 | 106.5 | |||||||||
| 16:45 | 23.5 | 63.5 | 1021.7 | 3.5 | S | 9.5 | SW | 0.0 | 66.9 | |||||||||
| 16:50 | 23.3 | 64.3 | 1021.7 | 2.7 | S | 6.7 | SE | 0.0 | 57.9 | |||||||||
| 16:55 | 23.2 | 65.5 | 1021.7 | 1.3 | S | 7.8 | W | 0.0 | 61.1 | |||||||||
| 17:00 | 22.9 | 67.3 | 1021.7 | 2.7 | S | 6.4 | SSW | 0.0 | 71.7 | |||||||||
| 17:05 | 22.9 | 67.1 | 1021.8 | 2.1 | SSE | 4.9 | SE | 0.0 | 67.9 | |||||||||
| 17:10 | 22.7 | 67.6 | 1021.8 | 1.6 | S | 8.5 | SSW | 0.0 | 64.5 | |||||||||
| 17:15 | 22.6 | 68.0 | 1021.7 | 1.1 | N | 7.1 | WNW | 0.0 | 59.4 | |||||||||
| 17:20 | 22.5 | 68.9 | 1021.7 | 1.3 | NNE | 6.0 | NW | 0.0 | 48.4 | |||||||||
| 17:25 | 22.4 | 69.2 | 1021.5 | 1.0 | E | 3.5 | N | 0.0 | 44.8 | |||||||||
| 17:30 | 22.2 | 70.0 | 1021.5 | 0.7 | N | 6.4 | N | 0.0 | 51.9 | |||||||||
| 17:35 | 22.1 | 70.3 | 1021.5 | 1.1 | SE | 4.2 | SE | 0.0 | 60.1 | |||||||||
| 17:40 | 22.0 | 70.3 | 1021.5 | 1.4 | S | 5.6 | W | 0.0 | 55.0 | |||||||||
| 17:45 | 22.1 | 70.3 | 1021.4 | 3.1 | WSW | 7.8 | WNW | 0.0 | 49.1 | |||||||||
| 17:50 | 22.0 | 70.3 | 1021.4 | 1.8 | WNW | 7.1 | W | 0.0 | 41.9 | |||||||||
| 17:55 | 21.9 | 70.6 | 1021.5 | 1.4 | W | 5.6 | WNW | 0.0 | 36.8 | |||||||||
| 18:00 | 21.8 | 70.9 | 1021.5 | 1.1 | W | 6.7 | WSW | 0.0 | 28.0 | |||||||||
| 18:05 | 21.6 | 71.8 | 1021.5 | 1.8 | SW | 6.0 | SW | 0.0 | 17.3 | |||||||||
| 18:10 | 21.5 | 72.1 | 1021.5 | 1.8 | W | 7.1 | WNW | 0.0 | 12.3 | |||||||||
| 18:15 | 21.2 | 72.8 | 1021.5 | 1.6 | N | 6.0 | NW | 0.0 | 8.1 | |||||||||
| 18:20 | 21.0 | 73.8 | 1021.5 | 2.1 | NNE | 8.5 | NW | 0.0 | 5.6 | |||||||||
| 18:25 | 20.7 | 75.3 | 1021.5 | 1.5 | NE | 5.6 | W | 0.0 | 2.1 | |||||||||
| 18:30 | 20.5 | 76.4 | 1021.5 | 1.1 | NNW | 4.2 | W | 0.0 | 1.5 | |||||||||
| 18:35 | 20.3 | 77.4 | 1021.4 | 1.8 | NW | 8.8 | WSW | 0.0 | 1.4 | |||||||||
| 18:40 | 20.2 | 78.0 | 1021.4 | 2.6 | W | 9.9 | W | 0.0 | 0.3 | |||||||||
| 18:45 | 20.2 | 78.4 | 1021.4 | 3.3 | WSW | 8.8 | WNW | 0.0 | 0.2 | |||||||||
| 18:50 | 20.1 | 78.6 | 1021.4 | 4.8 | W | 12.4 | W | 0.0 | 0.1 | |||||||||
| 18:55 | 20.1 | 78.9 | 1021.4 | 5.8 | W | 14.1 | WSW | 0.0 | 0.1 | |||||||||
| 19:00 | 20.1 | 79.1 | 1021.4 | 5.7 | W | 13.8 | SSW | 0.0 | 0.1 | |||||||||
| 19:05 | 20.0 | 79.3 | 1021.4 | 5.4 | W | 12.7 | SW | 0.0 | 0.1 | |||||||||
| 19:10 | 19.9 | 79.8 | 1021.4 | 4.5 | WSW | 11.3 | S | 0.0 | 0.1 | |||||||||
| 19:15 | 19.9 | 80.1 | 1021.5 | 5.1 | WSW | 11.6 | SSW | 0.0 | 0.1 | |||||||||
| 19:20 | 19.7 | 80.5 | 1021.5 | 4.3 | WSW | 9.9 | SW | 0.0 | 0.1 | |||||||||
| 19:25 | 19.6 | 80.9 | 1021.7 | 4.0 | WSW | 11.6 | WSW | 0.0 | 0.1 | |||||||||
| 19:30 | 19.5 | 80.7 | 1021.7 | 4.8 | WSW | 14.5 | SW | 0.0 | 0.1 | |||||||||
| 19:35 | 19.6 | 78.9 | 1021.8 | 5.6 | WSW | 10.6 | WSW | 0.0 | 0.1 | |||||||||
| 19:40 | 19.7 | 77.3 | 1021.8 | 4.8 | WSW | 10.2 | SW | 0.0 | 0.1 | |||||||||
| 19:45 | 19.8 | 75.4 | 1022.0 | 3.8 | SW | 7.1 | SSW | 0.0 | 0.1 | |||||||||
| 19:50 | 19.8 | 75.7 | 1022.0 | 3.7 | WSW | 9.2 | SSW | 0.0 | 0.1 | |||||||||
| 19:55 | 19.7 | 75.4 | 1022.2 | 3.9 | SW | 8.8 | SSW | 0.0 | 0.1 | |||||||||
| 20:00 | 19.7 | 76.0 | 1022.2 | 3.2 | WSW | 8.5 | S | 0.0 | 0.1 | |||||||||
| 20:05 | 19.6 | 76.5 | 1022.3 | 2.9 | SW | 7.8 | S | 0.0 | 0.1 | |||||||||
| 20:10 | 19.5 | 77.3 | 1022.3 | 3.3 | WSW | 9.2 | WSW | 0.0 | 0.1 | |||||||||
| 20:15 | 19.5 | 77.5 | 1022.4 | 3.7 | WSW | 10.2 | SSW | 0.0 | 0.1 | |||||||||
| 20:20 | 19.6 | 77.5 | 1022.4 | 3.9 | WSW | 9.5 | WNW | 0.0 | 0.1 | |||||||||
| 20:25 | 19.6 | 77.5 | 1022.4 | 2.9 | W | 7.8 | SW | 0.0 | 0.1 | |||||||||
| 20:30 | 19.4 | 78.3 | 1022.4 | 1.4 | W | 5.6 | W | 0.0 | 0.1 | |||||||||
| Màxima | 25.9 | 97.7 | 1023.5 | 11.1 | SE | 25.1 | SE | 0.0 | 894.0 | |||||||||
| Mínima | 16.7 | 51.3 | 1021.4 | |||||||||||||||
| Total | 0.0 | |||||||||||||||||